Weather History for Saranac Lake, NY

Change the Weather History Date:

Friday, February 15, 2013

  Actual Average Record
Temperature  
Mean Temperature 28 °F 15 °F  
Max Temperature 33 °F 28 °F 50 °F (1984)
Min Temperature 22 °F 1 °F -36 °F (2003)
Degree Days  
Heating Degree Days 37 50  
Month to date heating degree days 808 770  
Since 1 July heating degree days 5717 6072  
Moisture  
Dew Point 25 °F    
Average Humidity 80    
Maximum Humidity 96    
Minimum Humidity 63    
Precipitation  
Precipitation 0.05 in 0.06 in 0.56 in (1984)
Month to date precipitation 0.45 0.92  
Year to date precipitation 1.68 3.05  
Sea Level Pressure  
Sea Level Pressure 29.79 in    
Wind  
Wind Speed 10 mph (SW)    
Max Wind Speed 26 mph    
Max Gust Speed 35 mph    
Visibility 5 miles    
Events Fog , Snow    
T = Trace of Precipitation, MM = Missing Value Source: NWS Daily Summary

Daily Weather History Graph

Daily Weather History Graph

Search for Another Location

Airport:

Trip Planner

Search our weather history database for the weather conditions in past years. The results will help you decide how hot, cold, wet, or windy it might be!

Date:

Astronomy

Feb. 15, 2013 Rise Set
Actual Time 6:56 AM EST 5:26 PM EST
Civil Twilight 6:26 AM EST 5:56 PM EST
Nautical Twilight 5:52 AM EST 6:30 PM EST
Astronomical Twilight 5:18 AM EST 7:03 PM EST
Moon 9:15 AM EST (2/15) 11:41 PM EST (2/15)
Length of Visible Light 11h 29m
Length of Day
10h 29m
Waxing Crescent, 30% of the Moon is Illuminated
Feb 15
Waxing Crescent
Feb 17
First Quarter
Feb 25
Full
Mar 4
Last Quarter
Mar 11
New

Hourly Weather History & Observations

Time (EST) Temp. Windchill Dew Point Humidity Pressure Visibility Wind Dir Wind Speed Gust Speed Precip Events Conditions
12:15 AM 21.2 °F - 19.4 °F 93% 29.77 in 2.0 mi Calm Calm - 0.00 in Snow Light Snow
12:29 AM 23.0 °F - 21.2 °F 93% 29.77 in 1.8 mi Calm Calm - 0.00 in Snow Light Snow
12:40 AM 23.0 °F - 21.2 °F 93% 29.76 in 2.0 mi Calm Calm - 0.00 in Snow Light Snow
12:51 AM 23.0 °F - 21.0 °F 92% 29.83 in 2.0 mi Calm Calm - 0.00 in Snow Light Snow
1:07 AM 23.0 °F - 21.2 °F 93% 29.75 in 1.8 mi Calm Calm - 0.00 in Snow Light Snow
1:16 AM 23.0 °F - 21.2 °F 93% 29.75 in 2.5 mi Calm Calm - 0.00 in Snow Light Snow
1:26 AM 24.8 °F - 21.2 °F 86% 29.75 in 3.0 mi Calm Calm - 0.00 in Snow Light Snow
1:51 AM 24.1 °F - 21.9 °F 91% 29.81 in 9.0 mi Calm Calm - 0.00 in   Overcast
2:38 AM 24.8 °F - 23.0 °F 93% 29.74 in 9.0 mi Calm Calm - N/A   Overcast
2:51 AM 26.1 °F - 24.1 °F 92% 29.79 in 10.0 mi Calm Calm - N/A   Overcast
3:24 AM 26.6 °F - 24.8 °F 93% 29.73 in 2.5 mi Calm Calm - 0.00 in Snow Light Snow
3:47 AM 26.6 °F - 24.8 °F 93% 29.72 in 5.0 mi Calm Calm - 0.01 in Snow Light Snow
3:51 AM 28.9 °F 22.8 °F 27.0 °F 92% 29.78 in 6.0 mi SSW 5.8 mph - 0.01 in Snow Light Snow
4:05 AM 30.2 °F 21.3 °F 28.4 °F 93% 29.71 in 10.0 mi SSW 10.4 mph - 0.00 in   Overcast
4:20 AM 30.2 °F 21.3 °F 28.4 °F 93% 29.72 in 2.0 mi SW 10.4 mph - 0.00 in Snow Light Snow
4:24 AM 30.2 °F 21.9 °F 28.4 °F 93% 29.72 in 0.8 mi SW 9.2 mph - 0.00 in Snow Light Snow
4:34 AM 30.2 °F 22.6 °F 28.4 °F 93% 29.72 in 1.0 mi SW 8.1 mph - 0.00 in Snow Light Snow
4:41 AM 30.2 °F 23.4 °F 28.4 °F 93% 29.72 in 3.0 mi SW 6.9 mph - 0.00 in Snow Light Snow
4:49 AM 30.2 °F 22.6 °F 28.4 °F 93% 29.72 in 5.0 mi SW 8.1 mph - 0.00 in   Overcast
4:51 AM 30.0 °F 23.2 °F 28.9 °F 96% 29.78 in 5.0 mi SW 6.9 mph - 0.00 in Snow Light Snow
5:15 AM 30.2 °F 22.6 °F 28.4 °F 93% 29.71 in 1.8 mi SW 8.1 mph - 0.01 in Snow Light Snow
5:19 AM 30.2 °F 22.6 °F 28.4 °F 93% 29.71 in 0.8 mi SW 8.1 mph - 0.01 in Snow Light Snow
5:28 AM 30.2 °F 23.4 °F 28.4 °F 93% 29.71 in 2.0 mi SW 6.9 mph - 0.01 in Snow Light Snow
5:36 AM 30.2 °F 24.3 °F 28.4 °F 93% 29.71 in 6.0 mi SW 5.8 mph - 0.01 in   Overcast
5:44 AM 30.2 °F 22.6 °F 28.4 °F 93% 29.72 in 1.5 mi SW 8.1 mph - 0.01 in Snow Light Snow
5:47 AM 30.2 °F 23.4 °F 28.4 °F 93% 29.72 in 0.8 mi WSW 6.9 mph - 0.02 in Snow Light Snow
5:51 AM 30.9 °F 23.5 °F 28.9 °F 92% 29.78 in 0.5 mi SW 8.1 mph - 0.02 in Fog , Snow Snow
6:08 AM 30.2 °F 22.6 °F 28.4 °F 93% 29.72 in 1.5 mi SW 8.1 mph - 0.00 in Snow Light Snow
6:28 AM 30.2 °F 25.4 °F 30.2 °F 100% 29.72 in 0.8 mi WSW 4.6 mph - 0.01 in Snow Light Snow
6:39 AM 30.2 °F 24.3 °F 30.2 °F 100% 29.73 in 0.8 mi SW 5.8 mph - 0.02 in Snow Light Snow
6:48 AM 30.2 °F 23.4 °F 28.4 °F 93% 29.73 in 1.2 mi WSW 6.9 mph - 0.02 in Snow Light Snow
6:51 AM 30.9 °F 22.8 °F 28.9 °F 92% 29.80 in 1.8 mi SW 9.2 mph - 0.02 in Snow Light Snow
6:55 AM 30.2 °F 22.6 °F 28.4 °F 93% 29.73 in 3.0 mi SW 8.1 mph - 0.00 in Snow Light Snow
7:21 AM 30.2 °F 24.3 °F 28.4 °F 93% 29.73 in 5.0 mi SW 5.8 mph - 0.00 in Snow Light Snow
7:51 AM 30.9 °F 23.5 °F 28.9 °F 92% 29.81 in 6.0 mi SW 8.1 mph - 0.00 in   Overcast
8:01 AM 30.2 °F 21.3 °F 28.4 °F 93% 29.74 in 7.0 mi SW 10.4 mph - N/A   Overcast
8:22 AM 32.0 °F 21.6 °F 28.4 °F 87% 29.75 in 9.0 mi SW 15.0 mph 25.3 mph N/A   Overcast
8:51 AM 32.0 °F 22.1 °F 28.0 °F 85% 29.82 in 3.0 mi SW 13.8 mph 21.9 mph 0.00 in Snow Light Snow
9:01 AM 30.2 °F 20.2 °F 26.6 °F 86% 29.76 in 2.5 mi SW 12.7 mph - 0.00 in Snow Light Snow
9:10 AM 30.2 °F 20.2 °F 28.4 °F 93% 29.76 in 1.8 mi SW 12.7 mph - 0.00 in Snow Light Snow
9:18 AM 30.2 °F 19.8 °F 28.4 °F 93% 29.76 in 2.5 mi SW 13.8 mph - 0.00 in Snow Light Snow
9:25 AM 32.0 °F 21.6 °F 26.6 °F 80% 29.77 in 6.0 mi SW 15.0 mph 21.9 mph 0.00 in Snow Light Snow
9:51 AM 33.1 °F 22.2 °F 27.0 °F 78% 29.83 in 10.0 mi SW 17.3 mph 24.2 mph 0.00 in   Overcast
10:07 AM 32.0 °F 21.2 °F 26.6 °F 80% 29.77 in 10.0 mi SW 16.1 mph 21.9 mph N/A   Overcast
10:35 AM 32.0 °F 20.8 °F 24.8 °F 75% 29.77 in 10.0 mi SW 17.3 mph 27.6 mph N/A   Overcast
10:51 AM 32.0 °F 20.8 °F 24.1 °F 73% 29.84 in 8.0 mi SW 17.3 mph 31.1 mph N/A   Overcast
11:51 AM 32.0 °F 21.2 °F 23.0 °F 69% 29.84 in 10.0 mi SW 16.1 mph 25.3 mph N/A   Overcast
12:51 PM 30.9 °F 20.7 °F 25.0 °F 79% 29.84 in 5.0 mi SW 13.8 mph 24.2 mph 0.00 in Snow Light Snow
1:51 PM 30.9 °F 21.2 °F 24.1 °F 76% 29.85 in 9.0 mi WSW 12.7 mph 21.9 mph 0.00 in Snow Light Snow
2:51 PM 30.0 °F 17.9 °F 24.1 °F 79% 29.86 in 9.0 mi SW 18.4 mph 25.3 mph 0.00 in   Overcast
3:23 PM 30.2 °F 19.3 °F 21.2 °F 69% 29.81 in 10.0 mi WSW 15.0 mph 20.7 mph N/A   Mostly Cloudy
3:51 PM 30.0 °F 19.5 °F 21.9 °F 72% 29.88 in 10.0 mi SW 13.8 mph - N/A   Overcast
4:51 PM 30.0 °F 18.3 °F 19.0 °F 64% 29.90 in 7.0 mi WSW 17.3 mph 34.5 mph N/A   Overcast
5:51 PM 28.0 °F 18.6 °F 17.1 °F 63% 29.92 in 10.0 mi SW 10.4 mph 21.9 mph N/A   Mostly Cloudy
6:51 PM 26.1 °F 17.6 °F 17.1 °F 69% 29.93 in 10.0 mi WSW 8.1 mph - N/A   Clear
7:31 PM 26.6 °F 18.2 °F 17.6 °F 69% 29.87 in 10.0 mi SW 8.1 mph - N/A   Mostly Cloudy
7:51 PM 26.1 °F 17.6 °F 19.0 °F 75% 29.94 in 10.0 mi SW 8.1 mph - N/A   Overcast
8:51 PM 25.0 °F 14.2 °F 17.1 °F 72% 29.94 in 10.0 mi WSW 11.5 mph 18.4 mph N/A   Mostly Cloudy
9:51 PM 24.1 °F 13.7 °F 16.0 °F 71% 29.94 in 10.0 mi WSW 10.4 mph 16.1 mph N/A   Mostly Cloudy
10:09 PM 23.0 °F 13.9 °F 14.0 °F 68% 29.88 in 10.0 mi WSW 8.1 mph 17.3 mph N/A   Mostly Cloudy
10:51 PM 21.9 °F 13.4 °F 12.9 °F 68% 29.95 in 10.0 mi SW 6.9 mph - N/A   Overcast
11:51 PM 21.9 °F 13.4 °F 12.9 °F 68% 29.95 in 10.0 mi SW 6.9 mph - N/A   Overcast